Location: Unspecified
(0.0000°N, 0.0000°E)
Time: 20:21:49
(UTC+00:00)

OFEQ 9 - Visible Passes

Search period start: 23 March 2019 00:00
Search period end: 02 April 2019 00:00
Orbit: 487 x 496 km, 141.7° (Epoch: 03 March)

Date Brightness Start Highest point End Pass type
(mag) Time Alt. Az. Time Alt. Az. Time Alt. Az.
23 Mar 9.3 04:54:28 10° ESE 04:56:17 14° SE 04:58:05 10° S visible
23 Mar 9.3 19:42:19 11° S 19:43:49 14° SW 19:45:37 10° WSW visible
24 Mar 7.9 19:18:33 18° SSE 19:20:40 36° SW 19:23:52 10° WNW visible
25 Mar 9.3 05:37:33 10° ESE 05:39:30 14° SE 05:41:26 10° S visible
25 Mar 6.5 18:54:46 16° ESE 18:57:28 73° NE 19:00:55 10° NW visible
26 Mar 7.9 18:31:26 10° E 18:34:16 24° NE 18:37:08 10° NNW visible
26 Mar 8.9 20:05:21 23° W 20:05:21 23° W 20:07:02 10° WNW visible
27 Mar 7.2 19:41:28 50° NW 19:41:28 50° NW 19:44:07 10° NW visible
28 Mar 7.9 19:17:32 25° NNE 19:17:32 25° NNE 19:20:22 10° NNW visible
